Weather History for KOWB - March, 2013

Change the Weather History Date:

Sunday, March 17, 2013

  Actual Average Record
Temperature  
Mean Temperature 40 °F -  
Max Temperature 42 °F 56 °F 79 °F (1989)
Min Temperature 38 °F 34 °F 13 °F (1941)
Degree Days  
Heating Degree Days 25    
Moisture  
Dew Point 39 °F    
Average Humidity 95    
Maximum Humidity 100    
Minimum Humidity 81    
Precipitation  
Precipitation 0.95 in - - ()
Sea Level Pressure  
Sea Level Pressure 30.00 in    
Wind  
Wind Speed 9 mph (NE)    
Max Wind Speed 17 mph    
Max Gust Speed 25 mph    
Visibility 4 miles    
Events Rain    
Averages and records for this station are not official NWS values.
T = Trace of Precipitation, MM = Missing Value Source: NWS Daily Summary

Daily Weather History Graph

Daily Weather History Graph

Search for Another Location

Airport or City:

Trip Planner

Search our weather history database for the weather conditions in past years. The results will help you decide how hot, cold, wet, or windy it might be!

Date:

Astronomy

Mar. 17, 2013 Rise Set
Actual Time 6:56 AM CDT 6:58 PM CDT
Civil Twilight 6:30 AM CDT 7:24 PM CDT
Nautical Twilight 5:59 AM CDT 7:54 PM CDT
Astronomical Twilight 5:28 AM CDT 8:25 PM CDT
Moon 10:14 AM CDT (3/17) No Moon Set
Length of Visible Light 12h 53m
Length of Day
12h 01m
Waxing Crescent, 31% of the Moon is Illuminated
Mar 17
Waxing Crescent
Mar 19
First Quarter
Mar 27
Full
Apr 2
Last Quarter
Apr 10
New

Hourly Weather History & Observations

Time (CDT) Temp. Windchill Dew Point Humidity Pressure Visibility Wind Dir Wind Speed Gust Speed Precip Events Conditions
12:18 AM 42.8 °F 37.5 °F 37.4 °F 81% 29.98 in 7.0 mi North 9.2 mph - N/A   Mostly Cloudy
12:30 AM 42.8 °F 36.2 °F 37.4 °F 81% 29.97 in 7.0 mi NNE 12.7 mph - N/A   Scattered Clouds
12:56 AM 41.9 °F 38.2 °F 37.9 °F 86% 29.98 in 8.0 mi Variable 5.8 mph - N/A   Mostly Cloudy
1:56 AM 41.9 °F 38.2 °F 38.8 °F 89% 30.01 in 4.0 mi NE 5.8 mph - 0.01 in Rain Rain
2:06 AM 41.0 °F 39.0 °F 39.2 °F 93% 30.02 in 2.0 mi Variable 3.5 mph - 0.02 in Rain Rain
2:32 AM 41.0 °F 35.8 °F 39.2 °F 93% 30.05 in 4.0 mi WNW 8.1 mph - 0.05 in Rain Light Rain
2:49 AM 41.0 °F 36.4 °F 39.2 °F 93% 30.00 in 2.0 mi NNE 6.9 mph - 0.09 in Rain Heavy Rain
2:56 AM 39.9 °F 37.8 °F 38.8 °F 96% 30.01 in 2.5 mi Variable 3.5 mph - 0.09 in Rain Rain
3:18 AM 39.2 °F 35.0 °F 39.2 °F 100% 30.01 in 2.5 mi North 5.8 mph - 0.03 in Rain Rain
3:24 AM 39.2 °F 35.0 °F 39.2 °F 100% 30.01 in 3.0 mi NNW 5.8 mph - 0.03 in Rain Rain
3:45 AM 39.2 °F 35.0 °F 39.2 °F 100% 30.00 in 2.5 mi NNE 5.8 mph - 0.05 in Rain Rain
3:56 AM 39.9 °F 35.1 °F 38.8 °F 96% 30.03 in 4.0 mi NNW 6.9 mph - 0.06 in Rain Light Rain
4:03 AM 39.2 °F 32.5 °F 39.2 °F 100% 30.02 in 2.5 mi NNW 10.4 mph - 0.01 in Rain Rain
4:08 AM 39.2 °F 32.5 °F 39.2 °F 100% 30.03 in 1.8 mi NNW 10.4 mph - 0.03 in Rain Rain
4:20 AM 39.2 °F 33.6 °F 39.2 °F 100% 30.02 in 2.0 mi North 8.1 mph - 0.05 in Rain Heavy Rain
4:34 AM 39.2 °F 32.5 °F 39.2 °F 100% 30.01 in 2.5 mi NNE 10.4 mph - 0.08 in Rain Rain
4:41 AM 39.2 °F 33.6 °F 39.2 °F 100% 30.02 in 2.5 mi NNE 8.1 mph - 0.08 in Rain Rain
4:56 AM 39.9 °F 34.5 °F 38.8 °F 96% 30.03 in 3.0 mi NNE 8.1 mph - 0.10 in Rain Rain
5:03 AM 39.2 °F 33.6 °F 39.2 °F 100% 30.04 in 2.0 mi NNE 8.1 mph - 0.01 in Rain Heavy Rain
5:19 AM 39.2 °F 33.0 °F 39.2 °F 100% 30.03 in 3.0 mi NNE 9.2 mph - 0.03 in Rain Heavy Rain
5:56 AM 39.9 °F 33.9 °F 38.8 °F 96% 30.04 in 4.0 mi NNE 9.2 mph - 0.04 in Rain Light Rain
6:56 AM 39.9 °F 33.4 °F 38.8 °F 96% 30.04 in 2.0 mi NNE 10.4 mph - 0.03 in Rain Rain
7:22 AM 39.2 °F 33.6 °F 39.2 °F 100% 30.05 in 3.0 mi NNE 8.1 mph - 0.00 in   Overcast
7:56 AM 39.9 °F 32.9 °F 37.9 °F 93% 30.06 in 1.8 mi NE 11.5 mph - 0.00 in Rain Light Rain
8:56 AM 39.9 °F 34.5 °F 38.8 °F 96% 30.06 in 2.5 mi NE 8.1 mph - 0.03 in Rain Light Rain
9:06 AM 39.2 °F 32.0 °F 39.2 °F 100% 30.06 in 3.0 mi NE 11.5 mph - 0.00 in Rain Light Rain
9:56 AM 39.9 °F 34.5 °F 38.8 °F 96% 30.07 in 3.0 mi ENE 8.1 mph - 0.00 in Rain Light Rain
10:46 AM 39.2 °F 31.6 °F 39.2 °F 100% 30.06 in 2.0 mi ENE 12.7 mph - 0.02 in Rain Light Rain
10:56 AM 39.9 °F 33.4 °F 39.9 °F 100% 30.06 in 1.0 mi ENE 10.4 mph - 0.03 in Rain Rain
11:56 AM 41.0 °F 33.9 °F 38.8 °F 92% 30.07 in 2.0 mi NE 12.7 mph - 0.02 in Rain Rain
12:56 PM 39.9 °F 33.9 °F 38.8 °F 96% 30.08 in 1.0 mi ENE 9.2 mph - 0.19 in Rain Heavy Rain
1:56 PM 39.9 °F 32.5 °F 38.8 °F 96% 30.01 in 3.0 mi East 12.7 mph - 0.13 in Rain Light Rain
2:56 PM 41.9 °F 35.9 °F 39.9 °F 93% 29.97 in 7.0 mi East 10.4 mph - 0.00 in   Overcast
3:56 PM 41.9 °F 35.4 °F 39.9 °F 93% 29.95 in 7.0 mi ENE 11.5 mph - 0.01 in Rain Light Rain
4:56 PM 41.9 °F 36.3 °F 39.9 °F 93% 29.96 in 3.0 mi ENE 9.2 mph - 0.03 in Rain Heavy Rain
5:56 PM 41.0 °F 33.5 °F 38.8 °F 92% 29.93 in 3.0 mi ENE 13.8 mph 21.9 mph 0.10 in Rain Light Rain
6:56 PM 39.9 °F 32.5 °F 38.8 °F 96% 29.93 in 1.5 mi NE 12.7 mph - 0.04 in Rain Light Rain
7:56 PM 38.8 °F 30.0 °F 37.9 °F 97% 29.91 in 10.0 mi East 16.1 mph 19.6 mph 0.01 in   Overcast
8:56 PM 39.9 °F 31.1 °F 37.9 °F 93% 29.86 in 10.0 mi East 17.3 mph 25.3 mph 0.03 in   Overcast
9:56 PM 39.9 °F 31.4 °F 37.9 °F 93% 29.85 in 10.0 mi ESE 16.1 mph 25.3 mph 0.00 in   Overcast
10:56 PM 41.0 °F 34.7 °F 38.8 °F 92% 29.83 in 10.0 mi ESE 10.4 mph - N/A   Overcast
11:56 PM 41.0 °F 37.1 °F 38.8 °F 92% 29.83 in 10.0 mi NE 5.8 mph - N/A   Overcast